Regional Weather Roundup
Issued by NWS Northern Indiana

Home | Current Version | Previous Version | Text Only | Print | Product List | Glossary Off
Versions: 1 2 3 4 5 6 7 8 9 10 11 12 13 14 15 16 17 18 19 20 21 22 23 24 25 26 27 28 29 30 31 32 33 34 35 36 37 38 39 40 41 42 43 44 45 46 47 48 49 50

000
ASUS43 KIWX 290810
RWRIWX

KIWX WEATHER ROUNDUP
NATIONAL WEATHER SERVICE NORTHERN INDIANA
400 AM EDT WED JUL 29 2015

NOTE: "FAIR" INDICATES FEW OR NO CLOUDS BELOW 12,000 FEET WITH NO
SIGNIFICANT WEATHER AND/OR OBSTRUCTIONS TO VISIBILITY.

* THESE STATIONS ARE NOT UNDER NWS QUALITY CONTROL. THEY ALSO MAY NOT
  REPORT WEATHER SUCH AS PRECIPITATION OR FOG.

INZ001>027-290900-
NORTHERN INDIANA

CITY           SKY/WX    TMP DP  RH WIND       PRES   REMARKS
GARY*          CLOUDY    80  75  85 W8        29.94R
VALPARAISO     CLOUDY    76  73  91 CALM      29.93F
MICHIGAN CITY* MOCLDY    77  73  88 S3        29.93S
LAPORTE*       MOCLDY    74  74 100 CALM      29.94S FOG
KNOX*          PTCLDY    72  72 100 CALM      29.93S
SOUTH BEND     PTCLDY    77  71  82 CALM      29.94S
GOSHEN         PTCLDY    74  67  78 SE6       29.94F
MONTICELLO*    MOCLDY    75  75 100 CALM      29.94R FOG
LOGANSPORT*    CLEAR     70  68  94 CALM      29.95S FOG
ROCHESTER*     PTCLDY    77  77 100 CALM      29.95R
WARSAW*        PTCLDY    72  70  94 CALM      29.94F
ANGOLA*        CLEAR     72  63  73 SE3       29.96F
FORT WAYNE     PTCLDY    73  69  87 CALM      29.96F
HUNTINGTON*    PTCLDY    74  72  92 CALM      29.95S
PERU/GRISSOM   CLEAR     74  73  94 S6        29.94F
MARION*        CLEAR     71  71  98 CALM      29.96F FOG

$$
INZ028>050-290900-
CENTRAL INDIANA

CITY           SKY/WX    TMP DP  RH WIND       PRES   REMARKS
LAFAYETTE      MOCLDY    73  72  96 CALM      29.94S FOG
KOKOMO*        CLEAR     72  66  83 S3        29.94F
MUNCIE*        CLEAR     74  72  93 CALM      29.96F
INDIANAPOLIS   PTCLDY    77  71  82 SE3       29.94F

$$
MIZ043>046-050>051-056>058-064>065-071>073-077>080-290900-
SOUTHWEST LOWER MICHIGAN

CITY           SKY/WX    TMP DP  RH WIND       PRES   REMARKS
BATTLE CREEK   CLOUDY    75  62  64 S10       29.94F
BENTON HARBOR  MOCLDY    76  69  79 S5        29.91F
COLDWATER*     PTCLDY    70  62  75 SE6       29.95F
HILLSDALE*     PTCLDY    72  64  75 SE5       29.97F
HOLLAND        MOCLDY    74  66  76 SE6       29.92F
GRAND RAPIDS   PTCLDY    73  65  75 S6        29.92F
KALAMAZOO      MOCLDY    74  64  71 S5        29.94F
STURGIS*       CLEAR     72  66  83 SE8       29.94F
THREE RIVERS*  FAIR      72  65  79 CALM      29.94F

$$
OHZ001>008-015>018-024>025-290900-
NORTHWEST OHIO

CITY           SKY/WX    TMP DP  RH WIND       PRES   REMARKS
WAUSEON*       FAIR      66  66 100 NE3       29.96F
LIMA           CLEAR     70  67  90 CALM      29.97F

$$
AND FOR LAKE MICHIGAN COASTAL AND OPEN LAKE BUOY OBSERVATIONS

STATION/POSITION TEMP    WIND        PRES    VSBY  WAVE
                 AIR SEA DIR/SP/G                  HT/PER
                 (F)     (DEG/KT/KT) (MB)    (MI)  (FT/S)
CALUMET HARBOR    81     160/  4/  6   N/A
MICHIGAN CITY     80     150/  8/ 11   N/A
BURNS HARBOR      78     190/  7/  9 1013.5F
SAINT JOSEPH      77     120/  2/  5 1013.9R
4 MI NW BRIDGMAN  76 75  210/  8/ 10   N/A           1
MICHIGAN CITY     76 75  190/  6/  8   N/A           0

$$
&&



USA.gov is the U.S. government's official web portal to all federal, state and local government web resources and services.